Weather Roundup
Issued by NWS Chicago, IL

Home | Current Version | Previous Version | Text Only | Print | Product List | Glossary Off
Versions: 1 2 3 4 5 6 7 8 9 10 11 12 13 14 15 16 17 18 19 20 21 22 23 24 25 26 27 28 29 30 31 32 33 34 35 36 37 38 39 40 41 42 43 44 45 46 47 48 49 50

000
NZUS59 KLOT 210103
HRRLOT

CHICAGO AREA WEATHER ROUNDUP
NATIONAL WEATHER SERVICE CHICAGO/ROMEOVILLE IL
700 PM CST MON NOV 20 2017

NOTE: "FAIR" INDICATES FEW OR NO CLOUDS BELOW 12,000 FEET WITH NO
SIGNIFICANT WEATHER AND/OR OBSTRUCTIONS TO VISIBILITY.

* THESE STATIONS ARE NOT UNDER NWS QUALITY CONTROL. THEY ALSO MAY NOT
  REPORT WEATHER SUCH AS PRECIPITATION OR FOG.

ILZ005-006-012>014-019>023-210200-
NORTHEAST ILLINOIS

CITY           SKY/WX    TMP DP  RH WIND       PRES   REMARKS
OHARE          MOCLDY    48  32  53 S20G32    29.73S
MIDWAY         MOCLDY    47  34  60 S18G30    29.76S
AURORA         CLOUDY    46  33  60 S15G24    29.76R
LANSING*       CLEAR     44  34  68 S22G30    29.79S
JOLIET*        CLEAR     47  34  58 S18G28    29.78S
WAUKEGAN       CLOUDY    48  33  56 SW23G36   29.69S
DUPAGE AIRPORT CLEAR     45  35  68 S20G32    29.74R
WHEELING       CLEAR     50  33  52 S17G31    29.74R
KANKAKEE*      CLEAR     43  32  65 S15G21    29.82F
MORRIS*        CLEAR     45  33  61 S20G26    29.77R
LEWIS AIRPORT* CLEAR     45  33  62 S22G29    29.77S
NORTHERLY ISL    N/A     47  31  54 S16         N/A
$$

WIZ051-052-058>065-066-070>072-210200-
SOUTHEAST WISCONSIN

CITY           SKY/WX    TMP DP  RH WIND       PRES   REMARKS
MILWAUKEE      CLOUDY    50  33  52 SW20G32   29.65S
KENOSHA*       CLOUDY    49  33  54 SW18G32   29.67S
RACINE*        CLOUDY    49  34  56 SW20G31   29.67S
WAUKESHA       CLEAR     48  30  49 SW16G26   29.64F
WEST BEND      PTCLDY    46  32  57 SW18G25   29.59F
$$

INZ001>003-010>013-019-020-210200-
NORTHWEST INDIANA

CITY           SKY/WX    TMP DP  RH WIND       PRES   REMARKS
GARY*          CLEAR     48  28  46 SW16G39   29.78F
MICHIGAN CITY* NOT AVBL
RENSSELAER*    NOT AVBL
VALPARAISO     CLEAR     45  31  58 S18G26    29.81F
$$

LMZ740>746-210200-
SOUTHERN LAKE MICHIGAN

STATION/POSITION TIME  SKY/WX   TEMP WIND        PRES    VSBY
                                AIR  DIR/SP/G
                 (UTC)          (F)  (DEG/KT/KT) (MB)    (MI)
HARRISON CRIB    0040            49  210/ 37/ 43   N/A
BURNHAM HARBOR   0100            47  190/ 17/ 27   N/A
CALUMET HARBOR   0030            47  180/ 15/ 27 1007.0F
BURNS HARBOR     0040            46  190/ 22/ 30 1008.8F
MICHIGAN CITY    0040            46  180/ 23/ 28   N/A
$$

ABBREVIATIONS USED IN REMARKS
   TC - TEMPERATURE IN CELSIUS
  WCI - WIND CHILL INDEX
   HX - HEAT INDEX
  VSB - VISIBILITY
$$




USA.gov is the U.S. government's official web portal to all federal, state and local government web resources and services.